TimeEDT,TemperatureF,Dew PointF,Humidity,Sea Level PressureIn,VisibilityMPH,Wind Direction,Wind SpeedMPH,Gust SpeedMPH,PrecipitationIn,Events,Conditions,WindDirDegrees,DateUTC
12:53 AM,41.0,32.0,70,30.41,10.0,East,3.5,-,N/A,,Clear,90,2013-04-27 04:53:00
1:53 AM,39.0,32.0,76,30.41,10.0,ESE,3.5,-,N/A,,Clear,110,2013-04-27 05:53:00
2:53 AM,39.0,32.0,76,30.41,10.0,Calm,Calm,-,N/A,,Clear,0,2013-04-27 06:53:00
3:53 AM,41.0,30.9,67,30.41,10.0,Calm,Calm,-,N/A,,Clear,0,2013-04-27 07:53:00
4:53 AM,36.0,30.0,79,30.40,9.0,South,4.6,-,N/A,,Clear,170,2013-04-27 08:53:00
5:53 AM,37.0,30.0,76,30.41,10.0,Calm,Calm,-,N/A,,Clear,0,2013-04-27 09:53:00
6:53 AM,39.0,30.9,73,30.43,8.0,Calm,Calm,-,N/A,,Clear,0,2013-04-27 10:53:00
7:53 AM,44.1,35.1,71,30.44,10.0,Calm,Calm,-,N/A,,Clear,0,2013-04-27 11:53:00
8:53 AM,50.0,34.0,54,30.45,10.0,Calm,Calm,-,N/A,,Clear,0,2013-04-27 12:53:00
9:53 AM,55.0,35.1,47,30.44,10.0,SE,4.6,-,N/A,,Clear,140,2013-04-27 13:53:00
10:53 AM,57.0,33.1,40,30.43,10.0,Calm,Calm,-,N/A,,Clear,0,2013-04-27 14:53:00
11:53 AM,61.0,36.0,39,30.42,10.0,Calm,Calm,-,N/A,,Clear,0,2013-04-27 15:53:00
12:53 PM,64.0,34.0,33,30.40,10.0,Variable,4.6,-,N/A,,Clear,0,2013-04-27 16:53:00
1:53 PM,64.0,32.0,30,30.37,10.0,NNW,4.6,-,N/A,,Clear,340,2013-04-27 17:53:00
2:53 PM,66.0,32.0,28,30.35,10.0,North,3.5,-,N/A,,Clear,10,2013-04-27 18:53:00
3:53 PM,64.9,33.1,31,30.32,10.0,Variable,6.9,-,N/A,,Clear,0,2013-04-27 19:53:00
4:53 PM,66.0,34.0,30,30.31,10.0,Calm,Calm,-,N/A,,Clear,0,2013-04-27 20:53:00
5:53 PM,66.0,33.1,29,30.30,10.0,Calm,Calm,-,N/A,,Clear,0,2013-04-27 21:53:00
6:53 PM,64.0,37.0,37,30.29,9.0,ESE,3.5,-,N/A,,Clear,120,2013-04-27 22:53:00
7:53 PM,61.0,33.1,35,30.28,10.0,South,4.6,-,N/A,,Clear,190,2013-04-27 23:53:00
8:53 PM,60.1,32.0,35,30.29,10.0,South,4.6,-,N/A,,Clear,180,2013-04-28 00:53:00
9:53 PM,55.9,32.0,40,30.29,10.0,Calm,Calm,-,N/A,,Clear,0,2013-04-28 01:53:00
10:53 PM,53.1,33.1,47,30.29,10.0,Calm,Calm,-,N/A,,Clear,0,2013-04-28 02:53:00
11:53 PM,52.0,33.1,49,30.29,10.0,Calm,Calm,-,N/A,,Clear,0,2013-04-28 03:53:00